• In Moldova, Republic
  • List of Countries
  • For 7 days
  • Water Temperature
  • Satellite Maps
  • Weather Map
  • Weather Widgets
  • user-avatar
    Login

    Hourly Weather Prutz

    Today, 24 April, Tuesday

    Time Temperature Precipitation Wind Pressure Humidity
    00:00 +8°C° 1 mm 1 mps 634 mmHg 96%
    01:00 +7°C° 1 mm 2 mps 635 mmHg 96%
    02:00 +8°C° 0.5 mm 1 mps 635 mmHg 96%
    03:00 +8°C° 0.5 mm 1 mps 635 mmHg 96%
    04:00 +7°C° 0.5 mm 1 mps 635 mmHg 96%
    05:00 +8°C° 0.1 mm 1 mps 635 mmHg 94%
    06:00 +8°C° 0.1 mm 1 mps 635 mmHg 93%
    07:00 +8°C° 0.1 mm 1 mps 635 mmHg 91%
    08:00 +10°C° 0 mm 1 mps 636 mmHg 82%
    09:00 +11°C° 0 mm 0 mps 636 mmHg 73%
    10:00 +13°C° 0 mm 0 mps 637 mmHg 65%
    11:00 +15°C° 0 mm 1 mps 637 mmHg 60%
    12:00 +16°C° 0 mm 1 mps 637 mmHg 55%
    13:00 +18°C° 0 mm 1 mps 637 mmHg 49%
    14:00 +16°C° 0 mm 1 mps 637 mmHg 50%
    15:00 +16°C° 0 mm 1 mps 636 mmHg 51%
    16:00 +16°C° 0 mm 1 mps 636 mmHg 51%
    17:00 +15°C° 0 mm 1 mps 635 mmHg 60%
    18:00 +13°C° 0 mm 1 mps 635 mmHg 69%
    19:00 +11°C° 0 mm 1 mps 634 mmHg 78%
    20:00 +10°C° 0 mm 1 mps 634 mmHg 82%
    21:00 +9°C° 0 mm 1 mps 634 mmHg 85%
    22:00 +8°C° 0 mm 1 mps 634 mmHg 89%
    23:00 +8°C° 0 mm 1 mps 634 mmHg 89%

    Tomorrow, 25 April, Wednesday

    Time Temperature Precipitation Wind Pressure Humidity
    00:00 +8°C° 0 mm 1 mps 634 mmHg 88%
    01:00 +7°C° 0 mm 2 mps 634 mmHg 88%
    02:00 +6°C° 0 mm 2 mps 634 mmHg 88%
    03:00 +6°C° 0 mm 2 mps 633 mmHg 89%
    04:00 +6°C° 0 mm 2 mps 633 mmHg 89%
    05:00 +8°C° 0 mm 1 mps 633 mmHg 86%
    06:00 +9°C° 0 mm 1 mps 634 mmHg 83%
    07:00 +10°C° 0 mm 1 mps 634 mmHg 79%
    08:00 +12°C° 0 mm 1 mps 635 mmHg 73%
    09:00 +14°C° 0 mm 1 mps 635 mmHg 66%
    10:00 +16°C° 0 mm 1 mps 636 mmHg 59%
    11:00 +16°C° 0 mm 1 mps 636 mmHg 56%
    12:00 +17°C° 0 mm 2 mps 636 mmHg 54%
    13:00 +17°C° 0 mm 2 mps 636 mmHg 52%
    14:00 +17°C° 0.2 mm 2 mps 635 mmHg 54%
    15:00 +17°C° 0.2 mm 2 mps 635 mmHg 56%
    16:00 +16°C° 0.2 mm 2 mps 634 mmHg 58%
    17:00 +15°C° 0.3 mm 1 mps 634 mmHg 66%
    18:00 +13°C° 0.3 mm 1 mps 634 mmHg 75%
    19:00 +12°C° 0.3 mm 1 mps 633 mmHg 84%
    20:00 +11°C° 0.2 mm 1 mps 633 mmHg 88%
    21:00 +10°C° 0.2 mm 1 mps 634 mmHg 91%
    22:00 +10°C° 0.2 mm 1 mps 634 mmHg 94%
    23:00 +10°C° 0.2 mm 1 mps 634 mmHg 95%

    Day after tomorrow, 26 April, Thursday

    Time Temperature Precipitation Wind Pressure Humidity
    00:00 +10°C° 0.2 mm 1 mps 634 mmHg 96%
    01:00 +9°C° 0.2 mm 1 mps 633 mmHg 96%
    02:00 +9°C° 0.1 mm 1 mps 633 mmHg 97%
    03:00 +9°C° 0.1 mm 1 mps 633 mmHg 97%
    04:00 +9°C° 0.1 mm 1 mps 633 mmHg 97%
    05:00 +9°C° 0.2 mm 1 mps 633 mmHg 96%
    06:00 +9°C° 0.2 mm 1 mps 633 mmHg 95%
    07:00 +9°C° 0.2 mm 1 mps 633 mmHg 94%
    08:00 +9°C° 0.4 mm 1 mps 633 mmHg 92%
    09:00 +9°C° 0.4 mm 1 mps 634 mmHg 90%
    10:00 +9°C° 0.4 mm 2 mps 634 mmHg 87%
    11:00 +8°C° 0.6 mm 2 mps 634 mmHg 88%
    12:00 +8°C° 0.6 mm 2 mps 633 mmHg 89%
    13:00 +8°C° 0.6 mm 2 mps 633 mmHg 89%
    14:00 +8°C° 0.6 mm 2 mps 633 mmHg 89%
    15:00 +7°C° 0.6 mm 2 mps 633 mmHg 89%
    16:00 +7°C° 0.6 mm 2 mps 633 mmHg 89%
    17:00 +7°C° 0.3 mm 2 mps 633 mmHg 91%
    18:00 +7°C° 0.3 mm 1 mps 633 mmHg 92%
    19:00 +7°C° 0.3 mm 1 mps 633 mmHg 93%
    20:00 +6°C° 0.1 mm 1 mps 633 mmHg 94%
    21:00 +6°C° 0.1 mm 1 mps 633 mmHg 95%
    22:00 +4°C° 0.1 mm 0 mps 633 mmHg 96%
    23:00 +5°C° 0 mm 1 mps 633 mmHg 95%

    27 April, Friday

    Time Temperature Precipitation Wind Pressure Humidity
    00:00 +5°C° 0 mm 1 mps 632 mmHg 95%
    01:00 +5°C° 0 mm 1 mps 632 mmHg 95%
    02:00 +5°C° 0 mm 1 mps 632 mmHg 94%
    03:00 +5°C° 0 mm 1 mps 632 mmHg 94%
    04:00 +5°C° 0 mm 1 mps 631 mmHg 93%
    05:00 +6°C° 0 mm 1 mps 631 mmHg 91%
    06:00 +6°C° 0 mm 2 mps 632 mmHg 89%
    07:00 +7°C° 0 mm 2 mps 632 mmHg 87%
    08:00 +9°C° 0 mm 2 mps 632 mmHg 80%
    09:00 +10°C° 0 mm 2 mps 632 mmHg 74%
    10:00 +13°C° 0 mm 2 mps 633 mmHg 68%
    11:00 +14°C° 0.1 mm 2 mps 633 mmHg 66%
    12:00 +14°C° 0.1 mm 2 mps 632 mmHg 65%
    13:00 +13°C° 0.1 mm 3 mps 632 mmHg 64%
    14:00 +13°C° 0.4 mm 3 mps 632 mmHg 66%
    15:00 +13°C° 0.4 mm 3 mps 632 mmHg 68%
    16:00 +14°C° 0.4 mm 2 mps 631 mmHg 70%
    17:00 +13°C° 0.7 mm 2 mps 631 mmHg 76%
    18:00 +10°C° 0.7 mm 2 mps 631 mmHg 82%
    19:00 +9°C° 0.7 mm 2 mps 630 mmHg 89%
    20:00 +9°C° 0.4 mm 1 mps 630 mmHg 91%
    21:00 +9°C° 0.4 mm 1 mps 631 mmHg 93%
    22:00 +8°C° 0.4 mm 1 mps 631 mmHg 95%
    23:00 +8°C° 0.1 mm 1 mps 631 mmHg 95%

    28 April, Saturday

    Time Temperature Precipitation Wind Pressure Humidity
    00:00 +7°C° 0.1 mm 1 mps 630 mmHg 95%
    01:00 +7°C° 0.1 mm 1 mps 630 mmHg 95%
    02:00 +7°C° 0 mm 1 mps 630 mmHg 94%
    03:00 +6°C° 0 mm 1 mps 630 mmHg 94%
    04:00 +6°C° 0 mm 1 mps 630 mmHg 93%
    05:00 +7°C° 0 mm 1 mps 630 mmHg 90%
    06:00 +8°C° 0 mm 1 mps 631 mmHg 87%
    07:00 +8°C° 0 mm 0 mps 631 mmHg 84%
    08:00 +10°C° 0.1 mm 1 mps 631 mmHg 79%
    09:00 +12°C° 0.1 mm 1 mps 632 mmHg 73%
    10:00 +13°C° 0.1 mm 1 mps 632 mmHg 68%
    11:00 +14°C° 0.5 mm 1 mps 632 mmHg 67%
    12:00 +14°C° 0.5 mm 2 mps 632 mmHg 67%
    13:00 +14°C° 0.5 mm 2 mps 632 mmHg 67%
    14:00 +14°C° 0.8 mm 2 mps 631 mmHg 69%
    15:00 +14°C° 0.8 mm 2 mps 631 mmHg 71%
    16:00 +14°C° 0.8 mm 2 mps 631 mmHg 73%
    17:00 +13°C° 0.6 mm 2 mps 630 mmHg 77%
    18:00 +12°C° 0.6 mm 2 mps 630 mmHg 82%
    19:00 +10°C° 0.6 mm 2 mps 629 mmHg 86%
    20:00 +9°C° 0.1 mm 2 mps 629 mmHg 88%
    21:00 +8°C° 0.1 mm 2 mps 629 mmHg 89%
    22:00 +7°C° 0.1 mm 2 mps 629 mmHg 91%
    23:00 +7°C° 0 mm 3 mps 629 mmHg 91%

    29 April, Sunday

    Time Temperature Precipitation Wind Pressure Humidity
    00:00 +7°C° 0 mm 3 mps 628 mmHg 92%
    01:00 +5°C° 0 mm 3 mps 628 mmHg 92%
    02:00 +5°C° 0 mm 3 mps 628 mmHg 91%
    03:00 +5°C° 0 mm 3 mps 628 mmHg 91%
    04:00 +5°C° 0 mm 3 mps 627 mmHg 91%
    05:00 +7°C° 0 mm 3 mps 627 mmHg 88%
    06:00 +7°C° 0 mm 3 mps 628 mmHg 85%
    07:00 +8°C° 0 mm 3 mps 628 mmHg 82%
    08:00 +10°C° 0 mm 3 mps 628 mmHg 73%
    09:00 +12°C° 0 mm 3 mps 629 mmHg 65%
    10:00 +13°C° 0 mm 3 mps 629 mmHg 56%
    11:00 +14°C° 0 mm 3 mps 629 mmHg 54%
    12:00 +15°C° 0 mm 4 mps 629 mmHg 52%
    13:00 +15°C° 0 mm 4 mps 629 mmHg 50%
    14:00 +15°C° 0 mm 4 mps 629 mmHg 49%
    15:00 +16°C° 0 mm 3 mps 629 mmHg 49%
    16:00 +16°C° 0 mm 3 mps 629 mmHg 49%
    17:00 +13°C° 0 mm 3 mps 629 mmHg 56%
    18:00 +12°C° 0 mm 3 mps 628 mmHg 64%
    19:00 +10°C° 0 mm 3 mps 628 mmHg 72%
    20:00 +9°C° 0 mm 3 mps 628 mmHg 75%
    21:00 +8°C° 0 mm 3 mps 628 mmHg 79%
    22:00 +7°C° 0 mm 3 mps 628 mmHg 82%
    23:00 +5°C° 0 mm 3 mps 628 mmHg 83%
    Show more